STARLINK-1151, 45081

Orbit data source: Space-Track

STARLINK-1151, 45081 is a payload satellite owned by SpaceX/Seattle (US) in LEO that was launched on Wed, 29 Jan 2020 UTC via an FALCON 9 launch vehicle from the Air Force Eastern Test Range (AFETR). Payload-class satellites include a variety of spacecraft equipped with specific instruments for various scientific and technological missions. These include communications satellites like Starlink; space stations such as the ISS; scientific satellites like the Hubble; Earth observation satellites from companies like Planet Labs, Umbra, and HawkEye 360; GPS; miniature CubeSats for education and research; and military/defense satellites.

Loading next visibility...
Identifier
45081, 2020-006AP
Orbit
LEO
Country
Flag of USUS
Related business
Manufacturer
SpaceX/Seattle
Mission
Partially operational Commercial Communications
Bus & Motor
STARLINK, Unknown motor
Mass
260 kg wet, ~248 kg dry
Launch date (UTC)
2020-01-29 (6 years ago)
Launch vehicle
FALCON 9
Launch site
Air Force Eastern Test Range (AFETR)
Object type
Payload
Rocket body
Debris
Shape & HBR
Box + 1 Pan, 10.1 m
Radar Cross Section
13.562 m², Large (>1 m²)

Expand to show TLE details & history
Last TLE update: 11 hours ago

TLE from 11 hours ago
0 STARLINK-1151
1 45081U 20006AP  26129.51324253  .00057657  00000-0  40395-3 0  9995
2 45081  53.0505 299.3213 0002599 202.2913 157.7992 15.73678998346670
Epoch: 2026-05-09T12:19Z
TLE epoch observation values (Epoch: 2026-05-09T12:19:04.154Z)
Latitude
-0.00008°
Longitude
-112.77566°
Altitude
350.916 km
Speed
7.699 km/s
True Right ascension
19h 57m 17s
True Declination
0° 00' 00"
Sunlit
Object was in daylight at epoch
Visualization orbit readout
Latitude
Unknown
Longitude
Unknown
Altitude
Unknown
Speed
Unknown
Apparent Right ascension
Unknown
Apparent Declination
Unknown
Sunlit
N/A
Visualization observer readout
Local Sidereal Time
07:32:00
Azimuth
Unknown
Elevation
Unknown
Doppler factor
Unknown
Orbital elements
Apogee altitude
350.42 km
Perigee altitude
346.924 km
Semi-major axis
6,726.809 km
Eccentricity
0.00026
Inclination
53.0505°
RAAN
299.3213°
Arg. of periapsis
202.2913°
True anomaly
157.81045°
Mean anomaly
157.7992°
Eccentric anomaly
157.80483°
Mean motion
3.93396 °/min
Orbital period
91.51 mins
BSTAR
0.00040395
Loading maneuver chart data...
Computing Atmospheric mass density...

Documentation

Showing up to 5 results
|